Temperature
19 17 18 18 18 19 19 19 18 18 18 17 17 16 16 16 16 16 16 16 16 16 16 16 16 16 16 16 16 16 16 16 16 15 15 15 15 15 15 14 14 14 14 14
17 18 19 19 18 18 18 18 18 18 18 17 16 16 16 15 15 16 16 16 16 16 15 15 15 16 16 16 15 15 15 15 15 15 15 15 15 14 14 14 14 13 13 14
19 19 19 19 19 19 19 18 18 18 17 17 17 16 16 15 15 16 16 15 15 15 15 15 15 15 15 15 15 15 15 15 15 15 14 14 14 14 14 14 13 13 13 13
19 19 20 20 20 19 19 19 18 18 17 16 17 16 16 15 15 15 15 15 15 15 15 15 15 15 15 15 14 15 15 15 15 14 14 14 14 13 13 13 13 13 12 12
19 20 20 20 20 19 18 18 18 17 16 16 15 16 15 14 15 15 15 15 15 15 15 15 15 15 15 15 14 14 14 14 14 14 14 13 13 13 13 12 12 12 12 12
19 20 20 20 20 19 18 17 16 14 14 16 16 15 15 14 14 14 14 15 15 15 15 14 14 14 14 14 14 14 14 13 13 13 13 13 13 13 12 12 12 12 11 11
19 20 20 20 19 19 18 16 16 16 15 15 15 15 15 15 15 14 14 14 14 14 14 14 14 14 14 13 13 13 13 13 13 13 13 13 12 12 12 12 11 11 11 11
19 18 19 19 19 18 17 17 16 16 16 15 15 15 15 15 14 15 15 14 14 14 14 13 13 13 13 13 13 13 13 12 12 12 12 12 12 12 11 11 11 11 11 10
18 18 19 19 19 18 17 16 15 14 15 15 14 15 15 14 14 14 14 13 13 13 13 13 13 13 13 13 12 12 12 12 12 12 11 11 11 11 11 11 10 10 10 10
18 18 19 19 19 17 17 14 13 14 15 15 16 15 14 15 14 13 13 13 13 13 13 13 13 13 12 12 12 12 12 11 11 11 11 11 11 10 10 10 10 10 10 9
18 17 18 18 18 18 17 16 14 13 14 14 15 15 15 14 14 13 12 12 13 12 12 12 12 12 12 12 12 11 11 11 11 10 10 10 10 10 10 10 9 9 9 9
16 15 16 17 17 17 17 16 14 15 14 13 14 14 14 13 13 13 12 12 12 12 12 12 12 12 11 11 11 11 11 11 10 10 10 10 10 10 9 9 9 9 9 9
16 15 15 16 16 17 17 16 14 13 12 12 13 15 13 12 12 12 12 12 12 12 12 11 11 11 11 11 11 11 11 10 10 10 10 9 9 9 9 9 9 9 9 9
15 14 15 16 16 16 17 16 15 14 13 13 14 14 14 12 12 12 12 12 12 11 11 11 11 11 10 10 10 10 10 10 10 10 9 9 9 9 9 9 9 8 8 8
15 15 15 15 16 16 16 16 15 15 14 14 14 14 13 12 12 11 11 11 11 11 11 11 11 10 10 10 10 10 10 10 9 9 9 9 9 9 8 8 8 8 8 8
13 15 15 16 16 16 16 16 15 15 15 14 14 14 12 12 12 11 11 11 10 10 10 10 10 10 10 10 9 9 9 9 9 9 9 9 8 8 8 8 8 8 8 8
13 14 14 15 16 16 15 15 15 15 14 14 14 13 12 11 11 11 11 11 10 10 10 10 10 10 10 9 9 9 9 9 9 9 8 8 8 8 8 8 8 8 8 8
13 12 12 13 15 16 15 15 15 14 13 13 13 12 11 11 11 11 11 11 11 10 10 10 10 10 9 9 9 9 9 9 8 8 8 8 8 8 8 8 8 8 8 8
13 13 12 12 14 15 15 15 14 14 14 13 12 11 11 11 11 10 11 11 11 10 10 10 10 9 9 9 9 9 9 8 8 8 8 8 8 8 8 7 7 7 7 7
12 12 12 12 14 15 15 15 15 14 13 13 12 11 10 11 10 10 11 11 10 10 10 10 9 9 9 9 9 9 8 8 8 8 8 8 8 8 7 7 7 7 7 7
14 13 13 13 14 14 15 15 15 14 14 13 12 12 11 11 11 11 11 11 10 10 10 9 9 9 9 9 9 8 8 8 8 8 8 8 7 7 7 7 7 7 7 7
13 13 13 12 13 14 14 14 14 13 14 13 13 13 12 12 11 11 11 10 10 9 9 9 9 9 9 8 8 8 8 8 8 8 8 8 8 8 7 8 7 7 7 7
12 12 11 12 12 13 14 14 15 15 14 14 13 13 12 12 11 10 10 10 10 9 9 9 9 9 8 8 8 8 8 8 8 8 8 8 8 8 8 8 8 8 8 7
13 11 11 12 12 13 13 14 15 15 14 14 14 13 12 12 11 10 10 10 9 9 9 9 9 8 8 8 8 8 8 8 8 8 8 8 8 8 8 8 8 8 8 7
13 12 11 12 12 13 13 14 14 14 14 14 13 13 12 11 11 10 10 10 9 9 9 9 8 8 8 8 8 8 8 8 8 8 8 8 8 8 8 8 8 8 8 7
12 12 12 12 13 12 14 14 14 14 14 13 13 12 12 11 11 10 10 10 9 9 9 9 8 8 8 8 8 8 8 8 8 8 8 8 8 8 8 8 8 8 8 8
Wind_Speed
3 5 1 5 6 5 4 3 2 3 1 3 4 2 4 5 5 6 7 7 8 6 4 4 4 5 6 5 4 4 4 3 3 2 2 2 2 2 3 4 6 6 5 4
5 2 5 4 4 4 4 3 1 1 1 3 3 1 2 4 6 6 7 7 7 5 5 5 4 4 4 5 4 3 3 3 3 2 2 2 2 2 2 4 6 7 6 6
4 5 1 4 4 4 3 5 5 3 2 4 4 2 1 2 2 3 4 4 5 7 7 6 4 3 4 4 4 4 3 3 3 2 3 3 3 3 3 3 3 5 6 6
3 4 1 2 2 5 3 4 6 5 4 1 1 2 4 3 3 4 4 4 5 5 6 6 6 4 4 4 4 4 3 4 3 3 3 3 3 2 1 1 2 4 6 7
3 1 1 1 3 6 3 3 5 4 5 2 3 2 5 1 4 5 5 5 5 6 7 7 7 6 5 5 5 4 4 4 3 3 3 4 3 2 1 2 3 3 4 6
4 2 2 2 1 5 6 6 7 6 5 1 2 3 5 3 5 5 4 3 4 5 6 6 5 6 5 5 5 5 5 4 3 4 4 4 4 4 3 3 3 3 3 4
5 4 2 2 3 3 5 6 4 4 3 4 1 2 6 4 4 4 4 4 4 5 7 7 8 7 6 6 5 4 5 4 3 4 4 4 4 4 3 2 2 2 2 3
1 5 4 1 3 4 3 7 7 5 5 4 1 4 5 2 2 2 2 2 3 5 5 6 7 7 7 7 5 5 5 4 3 4 4 4 4 3 2 2 1 1 1 2
4 4 3 2 2 6 5 3 5 6 3 0 3 4 4 1 2 1 3 4 5 5 5 5 5 5 5 5 5 5 5 3 3 3 4 4 3 3 2 2 2 1 1 1
6 2 3 3 4 5 4 7 6 5 5 3 3 4 4 3 2 1 3 4 4 4 4 4 4 5 4 4 4 3 4 4 3 3 3 3 3 2 2 2 2 2 2 2
3 3 4 4 2 1 3 4 5 4 4 5 3 5 3 4 4 3 4 4 4 5 5 4 4 4 5 4 4 4 3 4 3 3 3 3 2 2 3 2 2 2 2 2
4 5 0 3 3 1 2 4 6 4 3 3 3 5 4 2 3 4 4 3 3 4 5 5 5 5 4 4 3 4 3 3 3 3 3 3 2 3 3 2 2 2 2 2
6 5 2 5 5 3 2 2 4 5 5 4 3 4 2 3 3 3 4 3 4 5 5 5 5 5 4 3 2 2 3 3 2 3 3 3 2 3 2 2 2 2 2 2
5 4 5 6 5 2 0 1 3 5 4 4 5 4 1 2 2 3 3 4 4 5 5 5 4 3 3 2 2 2 2 2 3 3 3 2 1 1 1 1 2 2 2 2
5 4 3 1 1 2 1 1 3 4 5 6 4 4 4 4 4 4 4 5 5 4 4 4 3 3 2 2 2 2 2 2 3 3 3 1 1 1 2 2 2 2 2 2
4 4 2 2 2 2 2 2 2 2 2 3 3 2 1 3 5 4 5 5 5 5 4 4 3 3 2 1 1 1 1 2 3 3 2 2 2 2 2 2 2 2 3 3
3 5 3 1 3 2 2 2 1 2 1 4 4 4 4 4 4 5 5 5 5 5 5 4 3 3 2 1 1 1 2 2 2 2 2 2 2 2 2 2 2 2 2 2
7 5 4 2 2 2 5 2 4 4 1 1 3 3 5 5 4 2 3 5 5 5 4 4 3 2 1 1 1 1 2 3 3 2 2 2 2 2 1 2 2 2 2 2
5 7 5 3 2 3 3 2 4 4 1 2 5 6 5 6 4 2 1 3 4 4 4 3 3 3 2 2 2 3 3 3 3 2 2 1 1 1 1 1 1 1 1 2
6 5 5 4 3 5 6 2 4 4 2 3 6 8 6 6 2 2 2 4 4 4 3 3 3 3 2 1 2 3 3 2 2 1 1 1 1 1 1 0 1 1 1 1
3 3 4 4 3 5 4 2 4 2 5 4 7 7 7 5 4 3 5 4 4 4 4 4 4 3 2 2 3 3 2 1 1 1 1 1 1 1 1 1 1 1 1 1
5 4 4 4 3 5 1 4 5 6 2 5 6 6 6 5 6 6 6 6 6 5 4 4 3 2 2 3 4 3 1 0 1 1 1 1 1 1 1 1 1 1 1 1
4 6 6 6 5 4 2 3 2 5 5 4 6 6 8 7 6 6 6 6 5 4 3 3 3 2 2 2 3 3 1 1 2 2 1 1 2 2 1 1 1 1 1 1
2 3 4 2 1 0 1 2 3 4 5 6 7 8 8 7 7 7 6 5 4 3 3 3 3 3 1 1 2 2 2 2 3 2 1 1 2 2 2 2 1 0 1 1
5 5 4 2 2 3 1 3 5 5 7 8 7 6 8 9 8 7 6 5 4 3 2 3 3 3 2 1 1 1 2 3 3 1 1 1 1 1 2 2 1 2 2 3
5 7 7 7 8 7 6 5 6 7 7 8 8 6 6 8 8 7 6 4 4 4 3 3 3 3 2 2 1 1 2 3 3 1 0 0 1 1 1 1 3 3 3 4
Wind_Direction
55 69 215 220 190 175 156 155 205 260 253 130 151 150 179 174 176 186 185 181 178 177 156 139 132 123 116 107 101 103 104 103 105 101 99 92 77 50 41 39 41 42 36 31
39 297 240 192 159 143 146 155 201 318 37 131 130 99 192 190 202 201 195 195 187 166 153 150 137 125 127 127 117 116 116 112 103 100 108 111 110 80 59 39 39 38 37 36
189 247 221 151 155 155 183 180 188 181 69 60 102 10 265 251 236 214 192 190 195 181 176 171 163 150 137 138 136 134 114 94 88 92 92 88 72 59 44 34 30 22 30 34
238 265 221 150 186 159 226 208 165 148 116 359 86 243 274 259 257 225 213 201 196 186 181 178 169 165 155 144 121 114 108 96 92 100 110 113 109 98 66 45 37 24 30 33
268 268 157 193 220 162 181 104 115 112 124 83 28 146 285 319 262 250 231 218 201 184 178 182 174 171 150 128 116 111 97 84 86 94 107 110 102 104 94 69 55 36 24 28
256 275 196 201 87 128 125 78 64 56 75 70 254 172 276 242 239 253 238 223 198 181 176 173 159 144 131 119 110 106 97 78 71 86 98 115 119 117 104 76 52 33 21 17
343 333 325 128 89 56 90 95 42 5 11 252 248 180 250 258 246 246 244 234 194 174 167 165 156 153 146 133 123 116 110 95 80 85 87 98 109 111 108 100 71 46 24 12
359 309 308 328 169 172 160 139 158 195 218 264 310 234 256 275 289 265 205 155 132 139 142 151 154 157 155 147 137 125 117 110 104 97 87 82 88 93 94 91 91 65 30 352
180 271 318 10 75 128 127 135 154 130 133 166 272 278 298 318 11 47 111 121 131 134 130 136 140 144 148 143 137 134 126 115 106 104 97 85 82 88 89 72 64 55 23 5
163 216 316 324 58 42 122 140 103 118 150 232 275 258 247 237 240 176 137 139 136 131 124 119 124 132 134 131 119 108 110 113 108 104 97 97 89 87 84 74 55 39 25 27
128 148 328 14 43 216 97 94 103 112 145 161 237 269 248 225 202 178 164 158 151 141 130 120 112 117 117 115 117 114 106 105 102 98 96 95 86 85 84 76 53 38 37 34
122 117 352 292 285 269 151 152 144 147 198 171 178 263 320 213 170 155 154 143 134 127 122 119 114 109 103 107 112 118 117 114 120 124 109 100 88 81 77 69 49 47 37 32
132 111 67 345 339 358 68 106 127 121 117 148 171 258 19 78 99 121 134 129 125 119 113 108 107 110 113 116 112 111 122 123 120 120 113 98 84 74 61 49 39 46 44 28
114 107 154 196 227 226 250 95 133 121 139 184 213 222 229 135 141 136 131 132 126 125 122 117 111 103 100 101 108 113 113 123 122 114 112 102 93 95 78 48 39 38 46 41
100 123 152 187 231 139 119 78 128 151 175 183 213 202 227 199 176 156 138 130 126 126 128 128 122 112 95 78 73 89 109 122 124 118 112 119 113 93 80 59 43 42 42 39
88 134 117 32 30 92 61 15 81 114 137 156 149 223 214 127 117 123 135 140 145 150 149 145 140 133 130 126 119 113 126 126 122 125 135 126 105 87 75 64 56 54 42 31
114 129 118 246 309 24 325 284 170 144 163 168 198 215 146 132 145 159 163 163 165 163 159 159 162 166 171 169 164 160 151 128 126 121 116 109 100 83 65 69 60 48 32 29
133 117 119 128 59 237 257 291 150 126 88 137 142 146 150 148 139 141 156 162 162 162 163 169 172 166 153 145 128 126 127 131 130 119 109 103 103 92 66 63 57 42 34 28
133 130 119 124 159 279 279 196 158 142 221 186 154 145 130 120 84 29 112 151 160 160 162 170 170 157 147 144 130 118 116 124 126 117 106 101 109 106 79 48 31 30 47 23
71 94 115 129 157 234 248 220 150 106 287 203 163 161 157 136 142 234 175 135 131 128 133 138 132 121 126 127 121 116 113 112 126 136 131 99 106 123 143 326 358 24 44 2
77 72 121 151 192 255 252 164 127 162 245 181 164 165 164 171 182 157 129 118 120 116 117 122 120 123 134 126 119 117 110 128 166 119 98 76 74 108 130 60 40 55 38 18
166 155 169 147 174 249 237 135 174 206 157 139 153 156 150 136 118 120 120 119 118 111 106 112 116 119 114 121 125 123 133 185 107 104 95 66 38 39 69 63 36 36 50 26
176 186 176 178 203 245 257 184 160 142 137 144 146 143 137 131 133 130 128 128 127 125 122 116 123 113 92 124 139 144 185 146 106 93 67 37 33 30 44 67 26 14 33 27
181 139 121 138 259 289 103 111 114 129 135 136 135 137 138 136 139 136 137 137 134 129 131 124 120 118 115 132 153 177 184 142 120 111 71 51 48 17 17 26 9 334 304 308
184 141 124 150 181 111 85 147 134 111 112 115 117 129 140 136 139 145 148 149 146 140 135 135 142 157 185 172 168 179 163 137 128 125 103 51 36 18 4 354 314 279 263 233
189 168 166 200 196 172 191 175 145 135 140 141 132 127 134 144 149 150 152 155 152 152 148 148 163 176 193 181 196 209 165 149 145 148 252 327 327 320 316 322 333 322 274 277
Height
1501 1507 1511 1509 1508 1509 1512 1518 1521 1519 1515 1517 1521 1522 1522 1521 1523 1524 1525 1526 1527 1529 1532 1533 1534 1535 1537 1539 1540 1542 1543 1544 1545 1545 1546 1547 1547 1547 1547 1547 1547 1547 1547 1547
1507 1509 1503 1502 1505 1508 1512 1518 1520 1518 1515 1518 1522 1524 1522 1521 1522 1522 1524 1525 1526 1528 1530 1532 1533 1535 1536 1538 1539 1541 1542 1543 1544 1545 1545 1546 1546 1546 1546 1546 1547 1546 1545 1545
1507 1504 1500 1502 1505 1509 1512 1516 1517 1519 1518 1519 1523 1527 1525 1522 1522 1523 1524 1525 1526 1527 1528 1530 1532 1533 1535 1536 1537 1539 1541 1541 1542 1544 1544 1545 1545 1545 1545 1546 1546 1545 1544 1544
1503 1500 1499 1501 1504 1506 1513 1507 1510 1515 1523 1530 1526 1537 1527 1523 1522 1521 1522 1523 1524 1526 1527 1528 1530 1532 1533 1535 1535 1537 1539 1540 1541 1543 1543 1544 1544 1544 1544 1545 1544 1544 1543 1542
1502 1499 1500 1502 1501 1502 1507 1506 1510 1515 1524 1531 1531 1536 1531 1524 1523 1520 1519 1520 1522 1524 1525 1527 1529 1530 1531 1533 1534 1536 1537 1538 1540 1541 1542 1542 1542 1543 1543 1544 1543 1543 1542 1541
1499 1496 1497 1498 1498 1499 1504 1510 1516 1524 1530 1539 1533 1536 1533 1527 1521 1518 1517 1518 1520 1522 1523 1525 1527 1529 1530 1532 1534 1535 1536 1538 1538 1539 1540 1541 1541 1542 1542 1542 1542 1541 1541 1540
1503 1499 1496 1496 1500 1502 1506 1519 1535 1536 1545 1542 1532 1534 1531 1519 1516 1516 1516 1516 1517 1519 1521 1523 1525 1528 1530 1531 1533 1534 1536 1537 1538 1539 1540 1540 1540 1541 1541 1541 1541 1540 1540 1539
1512 1513 1499 1496 1499 1504 1508 1515 1534 1541 1545 1541 1533 1534 1525 1516 1515 1514 1515 1516 1516 1518 1520 1522 1524 1527 1529 1530 1532 1533 1535 1536 1537 1538 1539 1539 1539 1540 1540 1540 1540 1540 1539 1538
1513 1511 1498 1496 1496 1500 1509 1516 1517 1531 1536 1541 1537 1529 1521 1515 1515 1514 1515 1516 1517 1518 1520 1522 1524 1527 1528 1530 1532 1533 1534 1535 1536 1537 1538 1538 1539 1539 1539 1539 1539 1539 1538 1538
1503 1509 1501 1498 1497 1501 1504 1511 1523 1531 1541 1543 1534 1530 1527 1518 1516 1516 1516 1517 1517 1519 1521 1523 1525 1527 1528 1530 1532 1533 1534 1535 1536 1537 1538 1538 1538 1539 1539 1539 1539 1538 1538 1537
1500 1509 1508 1503 1504 1506 1508 1513 1520 1530 1531 1539 1541 1534 1516 1515 1514 1515 1516 1517 1518 1519 1521 1524 1525 1527 1528 1530 1531 1533 1534 1535 1536 1537 1538 1538 1538 1538 1538 1538 1538 1538 1538 1537
1501 1511 1516 1509 1503 1502 1504 1508 1517 1525 1530 1533 1536 1533 1514 1513 1513 1514 1516 1517 1519 1520 1522 1524 1526 1527 1529 1530 1532 1533 1534 1535 1536 1536 1537 1538 1538 1538 1538 1538 1538 1538 1537 1537
1500 1511 1522 1519 1514 1507 1506 1508 1512 1519 1528 1534 1535 1528 1515 1513 1514 1515 1516 1518 1519 1521 1523 1524 1526 1528 1529 1531 1532 1532 1533 1535 1536 1536 1537 1537 1538 1538 1538 1538 1537 1537 1537 1537
1496 1509 1517 1521 1517 1509 1508 1508 1511 1517 1527 1529 1526 1521 1516 1515 1515 1516 1517 1518 1520 1522 1523 1525 1527 1528 1530 1531 1532 1532 1533 1534 1535 1535 1536 1536 1537 1537 1537 1537 1537 1537 1537 1536
1497 1509 1509 1509 1506 1506 1507 1508 1509 1513 1516 1521 1518 1517 1515 1515 1515 1517 1518 1519 1521 1522 1524 1526 1527 1529 1530 1531 1532 1532 1533 1534 1534 1535 1535 1536 1537 1537 1537 1537 1537 1537 1536 1536
1500 1508 1509 1510 1507 1506 1509 1508 1508 1509 1511 1514 1514 1516 1513 1514 1515 1517 1518 1519 1521 1522 1524 1526 1527 1529 1530 1531 1532 1532 1533 1534 1534 1535 1535 1536 1536 1536 1537 1537 1537 1537 1536 1536
1504 1508 1514 1517 1510 1508 1515 1510 1508 1509 1510 1511 1514 1514 1513 1514 1515 1516 1518 1519 1521 1522 1524 1526 1527 1528 1530 1531 1532 1532 1532 1533 1534 1535 1536 1536 1536 1537 1537 1537 1537 1537 1536 1536
1503 1509 1517 1519 1516 1522 1515 1505 1505 1508 1510 1509 1510 1511 1512 1514 1516 1517 1518 1519 1521 1523 1524 1526 1527 1529 1530 1531 1531 1532 1532 1533 1534 1535 1535 1536 1536 1537 1537 1537 1537 1537 1536 1536
1497 1506 1516 1523 1522 1518 1510 1505 1506 1508 1511 1509 1510 1512 1513 1515 1517 1519 1519 1520 1521 1523 1525 1526 1528 1529 1530 1531 1532 1532 1532 1533 1534 1535 1536 1536 1537 1537 1537 1537 1537 1536 1536 1536
1500 1503 1514 1520 1520 1522 1511 1502 1502 1507 1512 1508 1508 1511 1513 1515 1519 1520 1519 1520 1522 1524 1525 1527 1528 1529 1530 1531 1532 1532 1533 1534 1534 1535 1536 1537 1537 1537 1537 1537 1537 1537 1536 1536
1505 1509 1514 1518 1518 1513 1503 1501 1503 1514 1512 1505 1507 1509 1511 1513 1516 1518 1519 1520 1522 1524 1526 1527 1529 1530 1531 1532 1532 1533 1534 1534 1535 1536 1536 1537 1538 1538 1538 1537 1537 1537 1536 1536
1505 1509 1513 1516 1517 1514 1500 1501 1504 1505 1502 1503 1506 1508 1511 1513 1515 1517 1519 1521 1523 1525 1526 1528 1529 1530 1531 1532 1533 1534 1534 1535 1536 1536 1537 1537 1538 1538 1538 1538 1537 1537 1536 1536
1500 1502 1504 1507 1509 1501 1499 1499 1500 1501 1502 1504 1506 1509 1511 1513 1515 1518 1520 1522 1524 1526 1527 1529 1530 1531 1532 1533 1534 1534 1535 1536 1536 1537 1537 1538 1538 1538 1538 1538 1537 1537 1536 1535
1497 1497 1500 1502 1500 1499 1499 1499 1500 1502 1503 1505 1507 1509 1511 1513 1516 1518 1520 1523 1524 1526 1528 1529 1531 1532 1533 1533 1534 1535 1536 1536 1537 1537 1538 1538 1539 1539 1539 1539 1538 1537 1536 1535
1492 1495 1499 1500 1499 1499 1499 1500 1501 1503 1505 1506 1508 1510 1512 1514 1517 1519 1521 1523 1525 1527 1529 1530 1531 1532 1533 1534 1535 1536 1536 1537 1538 1538 1539 1539 1539 1539 1539 1539 1538 1537 1537 1536
1489 1491 1495 1496 1493 1495 1497 1499 1502 1503 1505 1507 1509 1511 1514 1516 1518 1520 1522 1524 1526 1528 1529 1530 1532 1533 1534 1535 1535 1536 1537 1537 1538 1539 1539 1539 1540 1540 1539 1539 1538 1538 1537 1536